Big Rapids, MI

2:40 PM EDT on July 26, 2016 (GMT -0400)
Roben-Hood

Weather History for KRQB - February, 2013

Change the Weather History Date:

Thursday, February 14, 2013

  Actual Average Record
Temperature  
Mean Temperature 32 °F -  
Max Temperature 38 °F 31 °F 47 °F (1984)
Min Temperature 25 °F 11 °F -11 °F (1970)
Degree Days  
Heating Degree Days 33    
Moisture  
Dew Point 30 °F    
Average Humidity 90    
Maximum Humidity 99    
Minimum Humidity 73    
Precipitation  
Precipitation 0.00 in - - ()
Sea Level Pressure  
Sea Level Pressure 29.65 in    
Wind  
Wind Speed 5 mph (SSW)    
Max Wind Speed 21 mph    
Max Gust Speed 31 mph    
Visibility 4 miles    
Events Rain , Snow    
Averages and records for this station are not official NWS values.
T = Trace of Precipitation, MM = Missing Value Source: NWS Daily Summary

Daily Weather History Graph

Daily Weather History Graph

Search for Another Location

Airport or City:

Trip Planner

Search our weather history database for the weather conditions in past years. The results will help you decide how hot, cold, wet, or windy it might be!

Date:

Astronomy

Feb. 14, 2013 Rise Set
Actual Time 7:41 AM EST 6:11 PM EST
Civil Twilight 7:12 AM EST 6:40 PM EST
Nautical Twilight 6:38 AM EST 7:14 PM EST
Astronomical Twilight 6:05 AM EST 7:47 PM EST
Moon 9:32 AM EST (2/14) 11:25 PM EST (2/14)
Length of Visible Light 11h 28m
Length of Day
10h 29m
Waxing Crescent, 21% of the Moon is Illuminated
Feb 14
Waxing Crescent
Feb 17
First Quarter
Feb 25
Full
Mar 4
Last Quarter
Mar 11
New

Hourly Weather History & Observations

Time (EST) Temp. Windchill Dew Point Humidity Pressure Visibility Wind Dir Wind Speed Gust Speed Precip Events Conditions
12:14 AM 30.7 °F - 29.1 °F 94% 29.68 in 4.0 mi Calm Calm - N/A   Overcast
12:34 AM 30.9 °F - 29.5 °F 94% 29.69 in 4.0 mi Calm Calm - N/A   Overcast
12:54 AM 30.4 °F 25.6 °F 28.9 °F 94% 29.68 in 3.0 mi SSE 4.6 mph - N/A   Overcast
1:14 AM 30.7 °F - 29.1 °F 94% 29.68 in 3.0 mi Calm Calm - N/A   Mostly Cloudy
1:34 AM 31.5 °F - 30.2 °F 95% 29.68 in 3.0 mi Calm Calm - N/A   Overcast
1:54 AM 31.1 °F - 29.8 °F 95% 29.68 in 3.0 mi Calm Calm - N/A   Mostly Cloudy
2:14 AM 29.8 °F 26.3 °F 28.8 °F 96% 29.67 in 2.0 mi SE 3.5 mph - N/A   Scattered Clouds
2:34 AM 28.2 °F - 27.3 °F 96% 29.67 in 2.0 mi Calm Calm - N/A   Clear
2:54 AM 28.0 °F - 27.3 °F 97% 29.67 in 1.8 mi Calm Calm - N/A   Mostly Cloudy
3:14 AM 29.8 °F - 29.1 °F 97% 29.67 in 2.0 mi Calm Calm - N/A   Overcast
3:34 AM 28.9 °F - 28.0 °F 96% 29.66 in 1.5 mi Calm Calm - N/A   Overcast
3:54 AM 28.9 °F - 28.2 °F 97% 29.66 in 1.5 mi Calm Calm - N/A   Overcast
4:14 AM 28.8 °F - 28.0 °F 97% 29.65 in 1.5 mi Calm Calm - N/A   Overcast
4:34 AM 29.3 °F - 28.4 °F 96% 29.65 in 1.5 mi Calm Calm - N/A   Overcast
4:54 AM 28.8 °F - 28.0 °F 97% 29.65 in 1.5 mi Calm Calm - N/A   Overcast
5:14 AM 28.9 °F 25.2 °F 28.4 °F 98% 29.64 in 1.8 mi SSE 3.5 mph - N/A   Overcast
5:34 AM 29.8 °F 26.3 °F 29.3 °F 98% 29.64 in 2.0 mi SSE 3.5 mph - N/A   Overcast
5:54 AM 30.6 °F 25.8 °F 29.8 °F 97% 29.64 in 2.0 mi SSE 4.6 mph - N/A   Overcast
6:13 AM 30.2 °F 25.4 °F 29.7 °F 98% 29.64 in 2.0 mi SSE 4.6 mph - N/A   Overcast
6:34 AM 30.9 °F 25.2 °F 30.2 °F 97% 29.64 in 2.5 mi South 5.8 mph - N/A   Overcast
6:54 AM 31.1 °F 26.4 °F 30.2 °F 96% 29.64 in 1.8 mi SSE 4.6 mph - N/A Snow Light Snow
7:13 AM 31.1 °F 25.4 °F 30.6 °F 98% 29.63 in 1.8 mi SSE 5.8 mph - N/A Snow Light Snow
7:34 AM 31.6 °F 28.3 °F 30.9 °F 97% 29.63 in 0.8 mi South 3.5 mph - N/A Snow Light Snow
7:54 AM 32.0 °F 27.5 °F 31.1 °F 96% 29.63 in 0.5 mi South 4.6 mph - N/A Snow Light Snow
8:14 AM 32.0 °F 26.4 °F 31.8 °F 99% 29.63 in 0.8 mi SSE 5.8 mph - N/A Snow Light Snow
8:34 AM 32.4 °F 26.9 °F 32.0 °F 99% 29.62 in 0.5 mi SSE 5.8 mph - N/A Snow Light Snow
8:54 AM 32.5 °F 27.1 °F 32.0 °F 98% 29.62 in 1.2 mi SSE 5.8 mph - N/A Snow Light Snow
9:14 AM 32.9 °F 27.5 °F 32.0 °F 96% 29.61 in 1.5 mi SSE 5.8 mph - N/A Snow Light Snow
9:33 AM 33.4 °F 27.3 °F 32.2 °F 95% 29.60 in 1.8 mi SSE 6.9 mph - N/A   Overcast
9:54 AM 33.8 °F 29.6 °F 32.4 °F 94% 29.59 in 1.8 mi SSE 4.6 mph - N/A   Overcast
10:14 AM 34.3 °F 29.2 °F 32.9 °F 94% 29.58 in 2.0 mi South 5.8 mph - N/A   Overcast
10:34 AM 35.4 °F 30.5 °F 32.9 °F 91% 29.59 in 3.0 mi South 5.8 mph - N/A   Overcast
10:54 AM 35.8 °F 28.8 °F 32.5 °F 88% 29.58 in 4.0 mi South 9.2 mph - N/A   Overcast
11:13 AM 36.0 °F 29.6 °F 32.9 °F 89% 29.58 in 4.0 mi South 8.1 mph - N/A   Overcast
11:34 AM 36.5 °F 31.8 °F 32.9 °F 87% 29.57 in 4.0 mi South 5.8 mph - N/A   Overcast
11:54 AM 36.5 °F 30.3 °F 33.1 °F 87% 29.57 in 4.0 mi South 8.1 mph - N/A   Overcast
12:14 PM 37.6 °F 30.5 °F 33.4 °F 85% 29.56 in 7.0 mi South 10.4 mph - N/A   Overcast
12:34 PM 38.3 °F 30.9 °F 32.0 °F 78% 29.56 in 7.0 mi South 11.5 mph - N/A   Overcast
12:54 PM 38.5 °F 31.6 °F 32.0 °F 78% 29.56 in 7.0 mi SSW 10.4 mph - N/A   Overcast
1:14 PM 38.3 °F 30.9 °F 32.0 °F 78% 29.55 in 7.0 mi SSW 11.5 mph 19.6 mph N/A   Overcast
1:34 PM 37.9 °F 29.6 °F 32.0 °F 79% 29.55 in 7.0 mi SSW 13.8 mph 20.7 mph N/A   Overcast
1:54 PM 37.4 °F 30.3 °F 32.0 °F 81% 29.55 in 7.0 mi SSW 10.4 mph - N/A   Overcast
2:14 PM 37.4 °F 31.4 °F 32.0 °F 81% 29.54 in 7.0 mi SSW 8.1 mph 17.3 mph N/A   Overcast
2:34 PM 37.2 °F 30.6 °F 32.0 °F 81% 29.54 in 7.0 mi SSW 9.2 mph 19.6 mph N/A   Overcast
2:54 PM 37.0 °F 28.5 °F 31.8 °F 81% 29.55 in 7.0 mi SW 13.8 mph 20.7 mph N/A   Overcast
3:14 PM 36.9 °F 30.7 °F 31.8 °F 82% 29.55 in 7.0 mi SW 8.1 mph - N/A   Overcast
3:34 PM 36.5 °F 31.0 °F 32.5 °F 86% 29.55 in 5.0 mi SW 6.9 mph - N/A Snow Light Snow
3:54 PM 36.5 °F 31.0 °F 32.9 °F 87% 29.55 in 7.0 mi SW 6.9 mph - N/A Rain Light Rain
4:14 PM 36.5 °F 29.7 °F 33.3 °F 88% 29.56 in 7.0 mi SW 9.2 mph - N/A Snow Light Snow
4:34 PM 35.6 °F 30.7 °F 33.1 °F 91% 29.57 in 2.5 mi SW 5.8 mph - N/A Snow Light Snow
4:54 PM 34.7 °F 30.6 °F 33.3 °F 94% 29.57 in 2.0 mi WSW 4.6 mph - N/A Snow Light Snow
5:14 PM 34.7 °F 28.1 °F 33.3 °F 94% 29.58 in 2.5 mi SW 8.1 mph - N/A Snow Light Snow
5:34 PM 34.9 °F 28.3 °F 33.1 °F 93% 29.59 in 3.0 mi West 8.1 mph - N/A Snow Light Snow
5:54 PM 34.7 °F 29.6 °F 33.3 °F 94% 29.60 in 2.5 mi West 5.8 mph - N/A Snow Light Snow
6:14 PM 34.7 °F 27.5 °F 33.1 °F 94% 29.62 in 2.0 mi West 9.2 mph - N/A Snow Light Snow
6:34 PM 34.7 °F 25.1 °F 32.9 °F 93% 29.63 in 4.0 mi WNW 15.0 mph - N/A Snow Light Snow
6:54 PM 34.5 °F 24.1 °F 32.2 °F 91% 29.65 in 5.0 mi NW 17.3 mph 21.9 mph N/A Snow Light Snow
7:14 PM 34.2 °F 24.4 °F 32.0 °F 92% 29.67 in 5.0 mi NW 15.0 mph 24.2 mph N/A Snow Light Snow
7:34 PM 33.8 °F 23.9 °F 32.0 °F 93% 29.69 in 2.0 mi NW 15.0 mph - N/A Snow Light Snow
7:54 PM 33.1 °F 21.5 °F 31.5 °F 94% 29.71 in 1.2 mi NW 19.6 mph 23.0 mph N/A Snow Light Snow
8:14 PM 32.2 °F 20.7 °F 29.5 °F 90% 29.72 in 1.0 mi NW 18.4 mph 28.8 mph N/A Snow Light Snow
8:34 PM 32.0 °F 21.2 °F 29.5 °F 90% 29.74 in 1.2 mi NW 16.1 mph - N/A Snow Light Snow
8:54 PM 31.1 °F 18.6 °F 27.9 °F 88% 29.76 in 3.0 mi NW 20.7 mph 28.8 mph N/A Snow Light Snow
9:14 PM 30.7 °F 18.5 °F 24.8 °F 79% 29.77 in 7.0 mi NNW 19.6 mph 31.1 mph N/A Snow Light Snow
9:34 PM 30.2 °F 18.5 °F 25.9 °F 84% 29.79 in 2.0 mi NW 17.3 mph - N/A Snow Light Snow
9:54 PM 29.3 °F 17.0 °F 22.8 °F 77% 29.80 in 7.0 mi NNW 18.4 mph 27.6 mph N/A Snow Light Snow
10:14 PM 28.0 °F 16.5 °F 21.0 °F 75% 29.81 in 10.0 mi NNW 15.0 mph 25.3 mph N/A   Mostly Cloudy
10:34 PM 27.1 °F 14.5 °F 19.4 °F 73% 29.82 in 10.0 mi NNW 17.3 mph 25.3 mph N/A   Scattered Clouds
10:54 PM 27.1 °F 14.9 °F 19.9 °F 74% 29.83 in 10.0 mi NNW 16.1 mph 23.0 mph N/A   Mostly Cloudy
11:14 PM 26.6 °F 15.2 °F 19.0 °F 73% 29.84 in 10.0 mi NNW 13.8 mph 24.2 mph N/A   Overcast
11:34 PM 26.4 °F 15.0 °F 18.7 °F 73% 29.84 in 10.0 mi NNW 13.8 mph 19.6 mph N/A   Overcast
11:54 PM 25.7 °F 14.6 °F 18.7 °F 75% 29.85 in 10.0 mi North 12.7 mph - N/A   Overcast